Location: Alafon
(8.4500°N, 4.2333°E)
Time: 23:17:47
(UTC+00:00)

Explorer 7 - Pass Details

Date: 25 July 2021
Orbit: 484 x 676 km, 50.3° (Epoch: 18 September)

Event Time Altitude Azimuth Distance (km) Brightness Sun altitude
Rises 14:53:47 0° 337° (NNW) 2,953 11.0 44.1°
Reaches altitude 10° 14:56:16 10° 346° (NNW) 2,064 10.2 43.6°
Maximum altitude 15:00:38 34° 51° (NE) 1,090 8.4 42.5°
Drops below altitude 10° 15:05:03 10° 116° (ESE) 2,101 9.4 41.5°
Sets 15:07:35 0° 125° (SE) 3,013 10.1 40.9°
